This is the latest recevied weather packets stored in our database for station/object YD2CLX-13. If no packets are shown the sender has not sent any weather packets the latest 10 day(s).
| Time | Temp. | Humidity | Pressure | Rain* | Wind** | Luminosity | Snow |
|---|---|---|---|---|---|---|---|
| 1777875073 | 13.33° C | 68% | 797.1 hPa | 0 mm | - | - | - |
| 1777874464 | 13.89° C | 68% | 797.3 hPa | 0 mm | - | - | - |
| 1777873855 | 13.89° C | 68% | 797.2 hPa | 0 mm | - | - | - |
| 1777873247 | 13.89° C | 68% | 797.4 hPa | 0 mm | - | - | - |
| 1777872638 | 15° C | 68% | 797.5 hPa | 0 mm | - | - | - |
| 1777872029 | 15° C | 68% | 797.8 hPa | 0 mm | - | - | - |
| 1777871421 | 14.44° C | 69% | 797.8 hPa | 0 mm | - | - | - |
| 1777869594 | 14.44° C | 69% | 798.3 hPa | 0 mm | - | - | - |
| 1777868986 | 13.89° C | 69% | 798.3 hPa | 0 mm | - | - | - |
| 1777868378 | 13.33° C | 69% | 798.5 hPa | 0 mm | - | - | - |
| 1777867771 | 14.44° C | 68% | 798.6 hPa | 0 mm | - | - | - |
| 1777867163 | 15° C | 69% | 798.6 hPa | 0 mm | - | - | - |
| 1777866554 | 16.11° C | 69% | 798.6 hPa | 0 mm | - | - | - |
| 1777865946 | 14.44° C | 69% | 798.8 hPa | 0 mm | - | - | - |
| 1777865337 | 13.33° C | 69% | 798.9 hPa | 0 mm | - | - | - |
| 1777864729 | 13.33° C | 68% | 798.9 hPa | 0 mm | - | - | - |
| 1777863511 | 15.56° C | 68% | 799 hPa | 0 mm | - | - | - |
| 1777862291 | 14.44° C | 69% | 799.1 hPa | 0 mm | - | - | - |
| 1777861073 | 15° C | 69% | 799 hPa | 0 mm | - | - | - |
| 1777860464 | 14.44° C | 69% | 799 hPa | 0 mm | - | - | - |
| 1777859854 | 15° C | 70% | 798.9 hPa | 0 mm | - | - | - |
| 1777859246 | 15.56° C | 70% | 798.9 hPa | 0 mm | - | - | - |
| 1777858637 | 16.67° C | 70% | 798.9 hPa | 0 mm | - | - | - |
| 1777857419 | 13.89° C | 71% | 798.7 hPa | 0 mm | - | - | - |
| 1777856808 | 15° C | 70% | 798.6 hPa | 0 mm | - | - | - |
* Rain latest hour (hover to see other rain measurements)
** Current wind speed in m/s (hover to see current wind gust speed)